Location: Oshawa
(43.9000°N, 78.8670°W)
Time: 02:54:48
(UTC-04:00)

S-56A Canister/Altair - All Passes

Search period start: 23 May 2018 00:00
Search period end: 02 June 2018 00:00
Orbit: 633 x 2500 km, 38.9° (Epoch: 22 May)

Date Brightness Start Highest point End Pass type
(mag) Time Alt. Az. Time Alt. Az. Time Alt. Az.
23 May - 02:02:01 10° W 02:08:39 35° SSW 02:18:08 10° SE visible
23 May - 04:08:10 10° WSW 04:12:59 15° SW 04:18:36 10° S visible
23 May - 19:23:33 10° S 19:25:45 13° SE 19:28:06 10° ESE daylight
23 May - 21:23:54 10° SW 21:28:24 42° SSE 21:34:19 10° E visible
23 May - 23:26:28 10° W 23:31:54 55° S 23:39:53 10° ESE visible
24 May - 01:29:39 10° W 01:35:54 37° SSW 01:44:56 10° SE visible
24 May - 03:35:11 10° WSW 03:40:10 16° SW 03:46:08 10° S visible
24 May - 18:52:28 10° SSE 18:53:25 11° SE 18:54:24 10° SE daylight
24 May - 20:51:46 10° SW 20:56:01 38° SSE 21:01:21 10° E daylight
24 May - 22:54:15 10° WSW 22:59:22 54° S 23:06:42 10° ESE visible
25 May - 00:57:20 10° W 01:03:14 38° SSW 01:11:44 10° SE visible
25 May - 03:02:23 10° WSW 03:07:23 17° SSW 03:13:32 10° S visible
25 May - 20:19:37 10° SW 20:23:40 33° SSE 20:28:27 10° E daylight
25 May - 22:22:02 10° WSW 22:26:53 53° S 22:33:36 10° ESE visible
26 May - 00:25:03 10° W 00:30:36 39° SSW 00:38:35 10° SE visible
26 May - 02:29:41 10° WSW 02:34:38 18° SSW 02:40:50 10° S visible
26 May - 19:47:29 10° SW 19:51:20 29° SSE 19:55:38 10° E daylight
26 May - 21:49:50 10° WSW 21:54:25 51° S 22:00:34 10° ESE visible
26 May - 23:52:47 10° W 23:58:02 40° SSW 00:05:28 10° SE visible
27 May - 01:57:06 10° WSW 02:01:57 19° SSW 02:08:05 10° S visible
27 May - 19:15:20 10° SSW 19:19:00 25° SSE 19:22:54 10° E daylight
27 May - 21:17:36 10° WSW 21:22:01 49° S 21:27:39 10° ESE visible
27 May - 23:20:33 10° W 23:25:30 41° SSW 23:32:25 10° SE visible
28 May - 01:24:36 10° WSW 01:29:17 20° SSW 01:35:17 10° SSE visible
28 May - 18:43:09 10° SSW 18:46:40 22° SSE 18:50:13 10° ESE daylight
28 May - 20:45:21 10° WSW 20:49:38 47° S 20:54:49 10° E daylight
28 May - 22:48:18 10° W 22:53:00 41° SSW 22:59:25 10° SE visible
29 May - 00:52:10 10° WSW 00:56:41 21° SSW 01:02:29 10° SSE visible
29 May - 18:10:59 10° SSW 18:14:19 20° SSE 18:17:33 10° ESE daylight
29 May - 20:13:03 10° WSW 20:17:16 44° S 20:22:05 10° E daylight
29 May - 22:16:03 10° W 22:20:34 42° S 22:26:30 10° ESE visible
30 May - 00:19:46 10° WSW 00:24:07 22° SSW 00:29:42 10° SSE visible
30 May - 17:38:47 10° SSW 17:41:57 17° SSE 17:44:56 10° ESE daylight
30 May - 19:40:44 10° WSW 19:44:55 41° S 19:49:26 10° E daylight
30 May - 21:43:47 10° W 21:48:09 43° S 21:53:39 10° ESE visible
30 May - 23:47:23 10° WSW 23:51:35 22° SSW 23:56:56 10° SSE visible
31 May - 17:06:35 10° S 17:09:34 16° SSE 17:12:20 10° ESE daylight
31 May - 19:08:21 10° WSW 19:12:35 39° SSE 19:16:51 10° E daylight
31 May - 21:11:29 10° W 21:15:45 44° S 21:20:53 10° ESE daylight
31 May - 23:15:02 10° WSW 23:19:05 23° SSW 23:24:11 10° SSE visible
01 Jun - 16:34:22 10° S 16:37:10 14° SSE 16:39:43 10° ESE daylight
01 Jun - 18:35:55 10° SW 18:40:14 36° SSE 18:44:21 10° E daylight
01 Jun - 20:39:09 10° WSW 20:43:22 44° S 20:48:12 10° ESE daylight
01 Jun - 22:42:41 10° WSW 22:46:38 24° SSW 22:51:30 10° SSE visible
